When you browse on this site, cookies collect data to enhance your experience and personalize the content and advertising you see.
Visit our Privacy Policy to learn more. By continuing to use the site, you agree to this use of cookies and data.
  • En España
  • Lista de países
  • Para 7 días
  • Temperatura del agua
  • El tiempo en el mapa
  • Informadores
  • user-avatar
    Iniciar sesión

    Tiempo cada hora Bindura

    Hoy, 22 Octubre, Martes

    Tiempo Temperatura Precipitaciones Viento Presión Humedad
    00:00 +25°C° 0 mm 1 mps 666 mmHg 34%
    01:00 +24°C° 0 mm 1 mps 666 mmHg 36%
    02:00 +21°C° 0 mm 0 mps 665 mmHg 39%
    03:00 +21°C° 0 mm 0 mps 665 mmHg 41%
    04:00 +20°C° 0 mm 0 mps 666 mmHg 42%
    05:00 +20°C° 0 mm 0 mps 666 mmHg 43%
    06:00 +25°C° 0 mm 1 mps 667 mmHg 38%
    07:00 +28°C° 0 mm 1 mps 668 mmHg 32%
    08:00 +31°C° 0 mm 2 mps 669 mmHg 27%
    09:00 +35°C° 0 mm 3 mps 669 mmHg 22%
    10:00 +37°C° 0 mm 3 mps 669 mmHg 18%
    11:00 +40°C° 0 mm 4 mps 669 mmHg 13%
    12:00 +41°C° 0 mm 4 mps 668 mmHg 12%
    13:00 +41°C° 0 mm 4 mps 667 mmHg 12%
    14:00 +42°C° 0 mm 5 mps 667 mmHg 11%
    15:00 +41°C° 0 mm 5 mps 666 mmHg 12%
    16:00 +39°C° 0 mm 5 mps 666 mmHg 13%
    17:00 +37°C° 0 mm 5 mps 666 mmHg 14%
    18:00 +35°C° 0 mm 4 mps 666 mmHg 17%
    19:00 +34°C° 0 mm 4 mps 666 mmHg 20%
    20:00 +31°C° 0 mm 3 mps 667 mmHg 23%
    21:00 +29°C° 0 mm 3 mps 667 mmHg 33%
    22:00 +28°C° 0 mm 3 mps 667 mmHg 44%
    23:00 +26°C° 0 mm 3 mps 667 mmHg 54%

    Mañana, 23 Octubre, Miércoles

    Tiempo Temperatura Precipitaciones Viento Presión Humedad
    00:00 +25°C° 0 mm 2 mps 666 mmHg 59%
    01:00 +23°C° 0 mm 2 mps 666 mmHg 65%
    02:00 +22°C° 0 mm 1 mps 666 mmHg 70%
    03:00 +22°C° 0 mm 1 mps 666 mmHg 72%
    04:00 +21°C° 0 mm 1 mps 666 mmHg 75%
    05:00 +20°C° 0 mm 1 mps 666 mmHg 77%
    06:00 +23°C° 0 mm 2 mps 667 mmHg 64%
    07:00 +26°C° 0 mm 3 mps 668 mmHg 51%
    08:00 +28°C° 0 mm 4 mps 669 mmHg 38%
    09:00 +32°C° 0 mm 4 mps 669 mmHg 33%
    10:00 +34°C° 0 mm 4 mps 669 mmHg 28%
    11:00 +37°C° 0 mm 4 mps 669 mmHg 24%
    12:00 +38°C° 0 mm 4 mps 669 mmHg 21%
    13:00 +38°C° 0 mm 4 mps 668 mmHg 19%
    14:00 +40°C° 0 mm 4 mps 667 mmHg 17%
    15:00 +40°C° 0 mm 4 mps 667 mmHg 18%
    16:00 +38°C° 0 mm 4 mps 666 mmHg 18%
    17:00 +37°C° 0 mm 4 mps 666 mmHg 19%
    18:00 +34°C° 0 mm 3 mps 666 mmHg 23%
    19:00 +31°C° 0 mm 3 mps 666 mmHg 27%
    20:00 +28°C° 0 mm 2 mps 666 mmHg 31%
    21:00 +27°C° 0 mm 2 mps 666 mmHg 33%
    22:00 +26°C° 0 mm 1 mps 666 mmHg 35%
    23:00 +25°C° 0 mm 1 mps 666 mmHg 37%

    Pasado mañana, 24 Octubre, Jueves

    Tiempo Temperatura Precipitaciones Viento Presión Humedad
    00:00 +24°C° 0 mm 1 mps 666 mmHg 39%
    01:00 +24°C° 0 mm 1 mps 666 mmHg 41%
    02:00 +23°C° 0 mm 1 mps 666 mmHg 42%
    03:00 +23°C° 0 mm 1 mps 666 mmHg 44%
    04:00 +20°C° 0 mm 0 mps 666 mmHg 46%
    05:00 +20°C° 0 mm 0 mps 666 mmHg 48%
    06:00 +25°C° 0 mm 1 mps 668 mmHg 43%
    07:00 +28°C° 0 mm 2 mps 669 mmHg 38%
    08:00 +31°C° 0 mm 2 mps 670 mmHg 33%
    09:00 +34°C° 0 mm 2 mps 670 mmHg 28%
    10:00 +36°C° 0 mm 3 mps 670 mmHg 23%
    11:00 +39°C° 0 mm 3 mps 670 mmHg 18%
    12:00 +40°C° 0 mm 4 mps 669 mmHg 17%
    13:00 +41°C° 0 mm 4 mps 669 mmHg 15%
    14:00 +42°C° 0 mm 5 mps 668 mmHg 13%
    15:00 +41°C° 0 mm 5 mps 667 mmHg 14%
    16:00 +40°C° 0 mm 5 mps 667 mmHg 15%
    17:00 +39°C° 0 mm 5 mps 667 mmHg 16%
    18:00 +35°C° 0 mm 4 mps 667 mmHg 20%
    19:00 +33°C° 0 mm 3 mps 667 mmHg 23%
    20:00 +29°C° 0 mm 2 mps 667 mmHg 27%
    21:00 +28°C° 0 mm 2 mps 667 mmHg 30%
    22:00 +27°C° 0 mm 1 mps 667 mmHg 33%
    23:00 +26°C° 0 mm 1 mps 667 mmHg 36%

    25 Octubre, Viernes

    Tiempo Temperatura Precipitaciones Viento Presión Humedad
    00:00 +25°C° 0 mm 1 mps 666 mmHg 38%
    01:00 +24°C° 0 mm 1 mps 666 mmHg 41%
    02:00 +23°C° 0 mm 1 mps 666 mmHg 43%
    03:00 +23°C° 0 mm 1 mps 666 mmHg 45%
    04:00 +20°C° 0 mm 0 mps 667 mmHg 47%
    05:00 +20°C° 0 mm 0 mps 667 mmHg 49%
    06:00 +25°C° 0 mm 1 mps 668 mmHg 44%
    07:00 +28°C° 0 mm 3 mps 669 mmHg 39%
    08:00 +32°C° 0 mm 4 mps 670 mmHg 33%
    09:00 +34°C° 0 mm 4 mps 670 mmHg 29%
    10:00 +36°C° 0 mm 4 mps 670 mmHg 25%
    11:00 +38°C° 0 mm 4 mps 670 mmHg 20%
    12:00 +38°C° 0 mm 4 mps 670 mmHg 18%
    13:00 +40°C° 0 mm 4 mps 669 mmHg 16%
    14:00 +41°C° 0 mm 4 mps 668 mmHg 14%
    15:00 +40°C° 0 mm 4 mps 668 mmHg 15%
    16:00 +38°C° 0 mm 4 mps 667 mmHg 16%
    17:00 +37°C° 0 mm 4 mps 667 mmHg 17%
    18:00 +34°C° 0 mm 3 mps 667 mmHg 20%
    19:00 +31°C° 0 mm 2 mps 667 mmHg 23%
    20:00 +28°C° 0 mm 2 mps 667 mmHg 25%
    21:00 +27°C° 0 mm 1 mps 667 mmHg 28%
    22:00 +26°C° 0 mm 1 mps 667 mmHg 31%
    23:00 +25°C° 0 mm 1 mps 667 mmHg 34%

    26 Octubre, Sábado

    Tiempo Temperatura Precipitaciones Viento Presión Humedad
    00:00 +25°C° 0 mm 1 mps 666 mmHg 37%
    01:00 +24°C° 0 mm 1 mps 666 mmHg 40%
    02:00 +21°C° 0 mm 0 mps 666 mmHg 44%
    03:00 +20°C° 0 mm 0 mps 666 mmHg 46%
    04:00 +20°C° 0 mm 0 mps 666 mmHg 48%
    05:00 +19°C° 0 mm 0 mps 667 mmHg 50%
    06:00 +25°C° 0 mm 1 mps 668 mmHg 43%
    07:00 +28°C° 0 mm 2 mps 669 mmHg 36%
    08:00 +33°C° 0 mm 3 mps 670 mmHg 29%
    09:00 +35°C° 0 mm 3 mps 670 mmHg 25%
    10:00 +37°C° 0 mm 4 mps 670 mmHg 21%
    11:00 +40°C° 0 mm 4 mps 670 mmHg 17%
    12:00 +41°C° 0 mm 4 mps 669 mmHg 16%
    13:00 +41°C° 0 mm 4 mps 668 mmHg 14%
    14:00 +42°C° 0 mm 4 mps 667 mmHg 13%
    15:00 +41°C° 0 mm 4 mps 667 mmHg 13%
    16:00 +40°C° 0 mm 4 mps 667 mmHg 14%
    17:00 +38°C° 0 mm 4 mps 666 mmHg 15%
    18:00 +35°C° 0 mm 3 mps 666 mmHg 18%
    19:00 +31°C° 0 mm 2 mps 666 mmHg 22%
    20:00 +29°C° 0 mm 2 mps 666 mmHg 26%
    21:00 +27°C° 0 mm 1 mps 665 mmHg 28%
    22:00 +26°C° 0 mm 1 mps 665 mmHg 30%
    23:00 +25°C° 0 mm 1 mps 665 mmHg 33%

    27 Octubre, Domingo

    Tiempo Temperatura Precipitaciones Viento Presión Humedad
    00:00 +25°C° 0 mm 1 mps 665 mmHg 34%
    01:00 +24°C° 0 mm 1 mps 665 mmHg 36%
    02:00 +24°C° 0 mm 1 mps 665 mmHg 38%
    03:00 +23°C° 0 mm 1 mps 665 mmHg 41%
    04:00 +22°C° 0 mm 1 mps 665 mmHg 43%
    05:00 +22°C° 0 mm 1 mps 665 mmHg 45%
    06:00 +25°C° 0 mm 2 mps 666 mmHg 39%
    07:00 +28°C° 0 mm 3 mps 667 mmHg 33%
    08:00 +32°C° 0 mm 4 mps 668 mmHg 27%
    09:00 +34°C° 0 mm 4 mps 669 mmHg 24%
    10:00 +36°C° 0 mm 4 mps 669 mmHg 21%
    11:00 +40°C° 0 mm 4 mps 669 mmHg 18%
    12:00 +40°C° 0 mm 4 mps 668 mmHg 16%
    13:00 +41°C° 0 mm 4 mps 667 mmHg 15%
    14:00 +42°C° 0 mm 4 mps 667 mmHg 14%
    15:00 +41°C° 0 mm 4 mps 666 mmHg 14%
    16:00 +40°C° 0 mm 4 mps 665 mmHg 14%
    17:00 +38°C° 0 mm 4 mps 665 mmHg 14%
    18:00 +35°C° 0 mm 3 mps 665 mmHg 18%
    19:00 +31°C° 0 mm 2 mps 664 mmHg 21%
    20:00 +28°C° 0 mm 1 mps 664 mmHg 24%
    21:00 +27°C° 0 mm 1 mps 664 mmHg 26%
    22:00 +26°C° 0 mm 1 mps 664 mmHg 28%
    23:00 +25°C° 0 mm 1 mps 664 mmHg 29%

    28 Octubre, Lunes

    Tiempo Temperatura Precipitaciones Viento Presión Humedad
    00:00 +22°C° 0 mm 0 mps 664 mmHg 31%
    01:00 +21°C° 0 mm 0 mps 663 mmHg 32%
    02:00 +20°C° 0 mm 0 mps 663 mmHg 33%
    03:00 +20°C° 0 mm 0 mps 663 mmHg 34%
    04:00 +19°C° 0 mm 0 mps 663 mmHg 36%
    05:00 +19°C° 0 mm 0 mps 664 mmHg 37%
    06:00 +25°C° 0 mm 1 mps 665 mmHg 31%
    07:00 +28°C° 0 mm 2 mps 666 mmHg 26%
    08:00 +32°C° 0 mm 2 mps 667 mmHg 20%
    09:00 +35°C° 0 mm 2 mps 667 mmHg 18%
    10:00 +38°C° 0 mm 3 mps 667 mmHg 16%
    11:00 +40°C° 0 mm 3 mps 667 mmHg 13%
    12:00 +42°C° 0 mm 3 mps 667 mmHg 13%
    13:00 +43°C° 0 mm 3 mps 666 mmHg 12%
    14:00 +43°C° 0 mm 3 mps 665 mmHg 11%
    15:00 +42°C° 0 mm 3 mps 665 mmHg 11%
    16:00 +42°C° 0 mm 3 mps 664 mmHg 11%
    17:00 +41°C° 0 mm 4 mps 664 mmHg 12%
    18:00 +36°C° 0 mm 3 mps 663 mmHg 15%
    19:00 +32°C° 0 mm 2 mps 663 mmHg 17%
    20:00 +28°C° 0 mm 1 mps 663 mmHg 20%
    21:00 +27°C° 0 mm 1 mps 663 mmHg 22%
    22:00 +24°C° 0 mm 0 mps 663 mmHg 24%
    23:00 +23°C° 0 mm 0 mps 663 mmHg 25%
    Mostrar más